Stündliche Wetter Kyzylzhar

Heute, 18 Mai, Dienstag

Zeit Temperatur Niederschläge Wind Luftdruck Luftfeuchtigkeit
00:00 +23°C° 0.1 mm 5 m/S 749 mmHg 42%
01:00 +23°C° 0.1 mm 6 m/S 749 mmHg 45%
02:00 +22°C° 0.1 mm 6 m/S 749 mmHg 47%
03:00 +21°C° 0 mm 5 m/S 748 mmHg 50%
04:00 +21°C° 0 mm 5 m/S 748 mmHg 54%
05:00 +20°C° 0 mm 4 m/S 748 mmHg 56%
06:00 +22°C° 0 mm 4 m/S 748 mmHg 51%
07:00 +23°C° 0 mm 5 m/S 748 mmHg 45%
08:00 +26°C° 0 mm 5 m/S 747 mmHg 39%
09:00 +29°C° 0 mm 5 m/S 747 mmHg 33%
10:00 +32°C° 0 mm 6 m/S 747 mmHg 27%
11:00 +34°C° 0 mm 6 m/S 747 mmHg 22%
12:00 +34°C° 0 mm 7 m/S 747 mmHg 21%
13:00 +34°C° 0 mm 7 m/S 746 mmHg 20%
14:00 +34°C° 0 mm 8 m/S 746 mmHg 20%
15:00 +34°C° 0 mm 7 m/S 746 mmHg 21%
16:00 +33°C° 0 mm 7 m/S 745 mmHg 23%
17:00 +33°C° 0 mm 7 m/S 745 mmHg 24%
18:00 +29°C° 0 mm 7 m/S 745 mmHg 35%
19:00 +24°C° 0 mm 7 m/S 746 mmHg 47%
20:00 +21°C° 0 mm 7 m/S 746 mmHg 58%
21:00 +20°C° 0.1 mm 6 m/S 746 mmHg 62%
22:00 +19°C° 0.1 mm 4 m/S 746 mmHg 65%
23:00 +18°C° 0.1 mm 3 m/S 746 mmHg 69%

Morgen, 19 Mai, Mittwoch

Zeit Temperatur Niederschläge Wind Luftdruck Luftfeuchtigkeit
00:00 +18°C° 0 mm 3 m/S 746 mmHg 69%
01:00 +17°C° 0 mm 3 m/S 745 mmHg 70%
02:00 +17°C° 0 mm 3 m/S 745 mmHg 70%
03:00 +17°C° 0.1 mm 4 m/S 746 mmHg 72%
04:00 +17°C° 0.1 mm 4 m/S 746 mmHg 75%
05:00 +15°C° 0.1 mm 5 m/S 746 mmHg 77%
06:00 +16°C° 0 mm 5 m/S 746 mmHg 73%
07:00 +16°C° 0 mm 6 m/S 747 mmHg 70%
08:00 +16°C° 0 mm 7 m/S 747 mmHg 67%
09:00 +16°C° 0 mm 6 m/S 748 mmHg 63%
10:00 +17°C° 0 mm 6 m/S 748 mmHg 60%
11:00 +17°C° 0 mm 6 m/S 748 mmHg 57%
12:00 +17°C° 0 mm 6 m/S 749 mmHg 55%
13:00 +16°C° 0 mm 7 m/S 749 mmHg 53%
14:00 +16°C° 0 mm 7 m/S 749 mmHg 51%
15:00 +16°C° 0 mm 7 m/S 749 mmHg 47%
16:00 +16°C° 0 mm 7 m/S 750 mmHg 44%
17:00 +16°C° 0 mm 6 m/S 750 mmHg 41%
18:00 +15°C° 0 mm 6 m/S 750 mmHg 40%
19:00 +15°C° 0 mm 6 m/S 750 mmHg 40%
20:00 +14°C° 0 mm 5 m/S 751 mmHg 39%
21:00 +13°C° 0 mm 5 m/S 751 mmHg 41%
22:00 +12°C° 0 mm 5 m/S 752 mmHg 42%
23:00 +10°C° 0 mm 5 m/S 752 mmHg 44%

übermorgen, 20 Mai, Donnerstag

Zeit Temperatur Niederschläge Wind Luftdruck Luftfeuchtigkeit
00:00 +10°C° 0 mm 4 m/S 752 mmHg 45%
01:00 +8°C° 0 mm 4 m/S 752 mmHg 47%
02:00 +8°C° 0 mm 3 m/S 753 mmHg 48%
03:00 +8°C° 0 mm 3 m/S 753 mmHg 47%
04:00 +7°C° 0 mm 2 m/S 753 mmHg 47%
05:00 +7°C° 0 mm 2 m/S 754 mmHg 46%
06:00 +9°C° 0 mm 3 m/S 754 mmHg 42%
07:00 +11°C° 0 mm 4 m/S 754 mmHg 37%
08:00 +13°C° 0 mm 5 m/S 754 mmHg 33%
09:00 +13°C° 0 mm 6 m/S 754 mmHg 32%
10:00 +14°C° 0 mm 6 m/S 754 mmHg 32%
11:00 +15°C° 0 mm 7 m/S 754 mmHg 31%
12:00 +15°C° 0 mm 7 m/S 754 mmHg 29%
13:00 +15°C° 0 mm 7 m/S 754 mmHg 28%
14:00 +15°C° 0 mm 7 m/S 755 mmHg 26%
15:00 +15°C° 0 mm 7 m/S 755 mmHg 25%
16:00 +15°C° 0 mm 6 m/S 755 mmHg 24%
17:00 +14°C° 0 mm 6 m/S 755 mmHg 24%
18:00 +13°C° 0 mm 5 m/S 756 mmHg 26%
19:00 +12°C° 0 mm 4 m/S 756 mmHg 28%
20:00 +10°C° 0 mm 3 m/S 757 mmHg 31%
21:00 +10°C° 0 mm 3 m/S 757 mmHg 32%
22:00 +9°C° 0 mm 3 m/S 757 mmHg 33%
23:00 +8°C° 0 mm 2 m/S 757 mmHg 34%

21 Mai, Freitag

Zeit Temperatur Niederschläge Wind Luftdruck Luftfeuchtigkeit
00:00 +8°C° 0 mm 2 m/S 757 mmHg 36%
01:00 +7°C° 0 mm 2 m/S 757 mmHg 38%
02:00 +7°C° 0 mm 2 m/S 758 mmHg 40%
03:00 +7°C° 0 mm 2 m/S 758 mmHg 40%
04:00 +7°C° 0 mm 2 m/S 758 mmHg 41%
05:00 +7°C° 0 mm 2 m/S 758 mmHg 41%
06:00 +9°C° 0 mm 3 m/S 758 mmHg 38%
07:00 +10°C° 0 mm 4 m/S 758 mmHg 35%
08:00 +11°C° 0 mm 4 m/S 758 mmHg 32%
09:00 +12°C° 0 mm 4 m/S 758 mmHg 32%
10:00 +12°C° 0 mm 4 m/S 758 mmHg 32%
11:00 +13°C° 0 mm 4 m/S 758 mmHg 32%
12:00 +13°C° 0 mm 4 m/S 758 mmHg 33%
13:00 +14°C° 0 mm 4 m/S 758 mmHg 33%
14:00 +15°C° 0 mm 5 m/S 758 mmHg 33%
15:00 +15°C° 0 mm 4 m/S 758 mmHg 34%
16:00 +15°C° 0 mm 4 m/S 758 mmHg 36%
17:00 +17°C° 0 mm 4 m/S 757 mmHg 37%
18:00 +14°C° 0 mm 3 m/S 757 mmHg 42%
19:00 +14°C° 0 mm 2 m/S 758 mmHg 47%
20:00 +13°C° 0 mm 1 m/S 758 mmHg 52%
21:00 +12°C° 0 mm 2 m/S 758 mmHg 50%
22:00 +11°C° 0 mm 3 m/S 758 mmHg 49%
23:00 +10°C° 0 mm 3 m/S 758 mmHg 47%

22 Mai, Samstag

Zeit Temperatur Niederschläge Wind Luftdruck Luftfeuchtigkeit
00:00 +10°C° 0 mm 3 m/S 758 mmHg 41%
01:00 +10°C° 0 mm 4 m/S 758 mmHg 36%
02:00 +8°C° 0 mm 4 m/S 758 mmHg 31%
03:00 +8°C° 0 mm 4 m/S 758 mmHg 32%
04:00 +8°C° 0 mm 4 m/S 758 mmHg 34%
05:00 +9°C° 0 mm 3 m/S 758 mmHg 35%
06:00 +11°C° 0 mm 4 m/S 758 mmHg 32%
07:00 +14°C° 0 mm 4 m/S 758 mmHg 28%
08:00 +17°C° 0 mm 4 m/S 758 mmHg 24%
09:00 +19°C° 0 mm 4 m/S 758 mmHg 24%
10:00 +20°C° 0 mm 4 m/S 758 mmHg 24%
11:00 +22°C° 0 mm 3 m/S 758 mmHg 23%
12:00 +24°C° 0 mm 2 m/S 757 mmHg 23%
13:00 +25°C° 0 mm 2 m/S 757 mmHg 22%
14:00 +26°C° 0 mm 1 m/S 757 mmHg 21%
15:00 +26°C° 0 mm 1 m/S 757 mmHg 21%
16:00 +26°C° 0 mm 1 m/S 757 mmHg 21%
17:00 +24°C° 0 mm 0 m/S 757 mmHg 21%
18:00 +25°C° 0 mm 1 m/S 757 mmHg 25%
19:00 +23°C° 0 mm 1 m/S 757 mmHg 28%
20:00 +22°C° 0 mm 1 m/S 757 mmHg 31%
21:00 +21°C° 0 mm 1 m/S 757 mmHg 32%
22:00 +20°C° 0 mm 1 m/S 757 mmHg 33%
23:00 +20°C° 0 mm 1 m/S 758 mmHg 34%

23 Mai, Sonntag

Zeit Temperatur Niederschläge Wind Luftdruck Luftfeuchtigkeit
00:00 +19°C° 0 mm 1 m/S 758 mmHg 34%
01:00 +18°C° 0 mm 2 m/S 758 mmHg 34%
02:00 +17°C° 0 mm 2 m/S 758 mmHg 35%
03:00 +17°C° 0 mm 2 m/S 758 mmHg 35%
04:00 +17°C° 0 mm 2 m/S 758 mmHg 35%
05:00 +17°C° 0 mm 2 m/S 758 mmHg 35%
06:00 +20°C° 0 mm 1 m/S 758 mmHg 32%
07:00 +23°C° 0 mm 1 m/S 758 mmHg 28%
08:00 +25°C° 0 mm 1 m/S 758 mmHg 25%
09:00 +26°C° 0 mm 1 m/S 758 mmHg 26%
10:00 +25°C° 0 mm 0 m/S 758 mmHg 26%
11:00 +27°C° 0 mm 0 m/S 758 mmHg 26%
12:00 +27°C° 0 mm 0 m/S 757 mmHg 26%
13:00 +30°C° 0 mm 1 m/S 757 mmHg 26%
14:00 +31°C° 0 mm 1 m/S 757 mmHg 26%
15:00 +31°C° 0 mm 1 m/S 756 mmHg 25%
16:00 +31°C° 0 mm 1 m/S 756 mmHg 25%
17:00 +31°C° 0 mm 1 m/S 756 mmHg 24%
18:00 +29°C° 0 mm 1 m/S 755 mmHg 27%
19:00 +28°C° 0 mm 1 m/S 755 mmHg 31%
20:00 +24°C° 0 mm 0 m/S 755 mmHg 34%
21:00 +25°C° 0 mm 1 m/S 755 mmHg 35%
22:00 +25°C° 0 mm 1 m/S 755 mmHg 36%
23:00 +24°C° 0 mm 1 m/S 755 mmHg 37%
Mehr zeigen

Wir brauchen deine Erlaubnis

Meteoprog und unser Service Anbieter werden persönliche Daten aufbewahren, so wie Cookies, Geräte Bezeichnung oder ähnliche Technologien von deinem Gerät und Prozess, so wie Persönliche Daten Inhalte und Werbungen, genauso wie social Media und den Verkehr zu analysieren.

  • Aufbewahrung und/oder Zugang zu deiner Geräte Informationen.

    Cookies, Geräte Bezeichnung oder andere Informationen, können aufbewahrt oder Zugang zu deinem Gerät erhalten, für den Grund, der oben angegeben wird.

  • Personalisierte Werbung und Inhalte, Messungen, Einblick in das Publikum und Produkt Entwicklung.

    Werbungen und Inhalte können personalisiert werden, basierend auf ein Profil. Mehr Daten können besser personalisierte Werbungen und Inhalte hinzufügen. Werbung und Inhalte können gezeigt und gemessen werden. Einblicke über das Publikum, welche die Werbung gesehen haben und den Inhalt, können abgeleitet werden. So wie Daten können genutzt werden, um es zu verbessern oder die Benutzer Erfahrung zu verbessern das System und die Software.

Wenn du “Ich stimme zu” klickst, erlaubst du uns, die Cookies zu benutzen die Geräte Bezeichnung, den Web oder ähnliche Technologien zu benutzen. Deine Settings, können in deinem Gerät bei deinem Browser geändert werden.

Für den bestimmten Zweck, berechtigten Interessen beruhen darauf, mehr als auf den Inhalt. Du kannst mehr darüber in unseren Privaten und Cookie Politik lesen.